Theta_e
324 327 323 326 330 328 331 331 332 331 330 331 332 333 333 333 333 332 333 334 334 334 334 334 333 334 334 334 333 333 334 333 334 334 333 333 333 333 333 333 333 334 333 334 334 334 334 335 334 333 334 334 333 332 329 325 324 324 323 322 321 322 323 323 323 322 321 319 318 316 315 317 325 333 337 338 338 338 339 339 338 337 336 333 334
318 322 320 323 330 330 331 330 328 327 327 328 330 331 329 329 330 329 330 331 332 332 333 333 333 333 334 334 333 333 334 334 335 334 334 334 334 333 334 334 334 334 334 334 334 335 336 335 336 335 335 335 334 334 332 329 327 326 324 323 322 321 321 321 321 322 322 322 320 318 316 315 319 328 334 337 338 338 339 339 339 338 338 336 332
316 318 317 319 326 329 329 326 322 322 324 325 326 326 325 325 326 325 326 328 329 329 330 331 330 331 332 332 331 332 332 332 333 332 332 333 333 332 332 332 333 334 334 334 335 336 337 336 336 336 336 336 335 335 334 332 331 330 328 328 326 324 323 322 321 321 321 321 322 320 317 315 318 324 329 334 337 338 338 338 339 339 338 338 335
315 316 316 317 320 322 322 320 317 318 321 321 321 322 322 321 321 322 322 323 324 325 326 327 326 327 328 328 328 329 330 329 329 329 329 330 331 330 330 330 330 332 332 334 336 336 336 337 337 338 337 336 335 335 334 334 333 332 332 331 330 328 328 327 325 325 323 321 321 322 321 318 319 321 325 332 337 338 338 338 338 338 338 338 338
315 314 315 316 316 316 315 315 314 315 316 316 317 317 318 317 317 316 317 317 317 319 320 322 322 323 324 325 325 325 326 326 325 325 326 327 329 329 329 328 328 329 330 332 334 333 334 336 336 336 335 335 334 333 333 334 333 333 333 332 332 331 330 330 328 327 326 324 323 323 323 321 321 321 324 329 333 335 335 336 337 337 338 338 339
315 313 314 314 314 313 313 313 313 313 313 313 313 313 314 313 313 312 312 312 312 313 314 315 316 317 319 320 321 321 322 322 321 321 322 324 325 326 326 326 326 326 326 328 329 330 331 333 333 333 332 332 332 332 332 332 332 333 333 332 331 331 331 330 329 328 327 326 325 325 324 323 323 324 326 327 326 326 324 325 329 332 335 337 338
314 313 313 313 313 313 313 313 313 313 312 312 312 312 312 312 312 311 311 311 311 311 311 311 312 312 313 314 315 316 317 317 316 317 317 318 319 320 321 321 322 322 322 323 324 325 327 328 328 328 330 331 331 331 331 332 332 332 332 331 331 330 330 329 329 329 329 328 327 326 325 325 326 326 327 329 327 324 323 319 317 318 324 332 336
313 313 313 313 314 313 313 313 313 313 312 312 311 311 311 311 310 310 310 310 310 310 310 310 310 310 310 311 311 312 312 312 312 313 313 313 313 313 314 315 315 316 317 317 318 320 321 322 322 323 326 327 328 329 329 329 330 330 330 330 330 330 329 329 329 328 329 329 328 327 327 326 327 327 327 329 328 325 325 324 321 319 317 320 326
313 313 313 314 313 313 313 312 311 310 310 309 309 309 309 309 308 308 308 308 308 308 308 308 308 309 309 309 309 310 310 310 310 310 311 310 311 311 311 311 311 312 312 313 314 315 316 317 317 317 319 320 322 323 324 324 325 325 326 327 328 329 329 329 329 328 328 328 329 328 328 327 326 327 327 329 329 327 325 326 327 327 324 320 318
314 313 313 313 313 312 311 310 309 308 308 308 308 308 308 307 307 307 307 306 307 306 306 306 306 306 307 307 307 308 308 308 308 308 309 309 309 309 309 309 310 310 310 310 311 311 312 313 313 313 314 314 315 316 317 317 318 319 319 320 322 325 326 327 328 328 328 328 328 328 328 328 327 326 327 329 331 331 328 325 325 326 326 326 323
313 313 313 313 312 310 309 309 308 308 308 307 307 307 307 307 306 306 305 305 305 304 304 304 304 304 304 304 304 304 304 305 305 305 305 306 306 306 306 306 307 307 307 308 308 309 309 309 310 310 311 311 312 312 312 313 313 313 314 314 315 318 320 322 324 325 326 327 328 328 328 329 329 327 326 328 329 331 330 327 325 325 324 325 326
313 313 313 312 311 309 309 308 308 308 307 307 307 307 306 305 305 304 304 304 304 304 303 303 303 303 303 303 303 303 303 303 303 303 303 303 303 303 303 303 303 303 304 304 304 304 304 305 305 306 306 307 308 308 309 309 310 310 311 312 312 313 314 316 318 320 322 325 326 328 328 328 329 328 327 327 329 330 330 329 328 326 325 324 323
314 313 313 311 310 309 308 308 308 308 307 307 307 306 305 304 304 304 304 304 304 304 303 304 303 303 303 303 303 303 303 303 303 303 302 303 302 302 302 302 302 302 302 302 302 302 302 302 302 302 303 303 303 304 304 305 306 306 307 308 309 310 311 312 313 316 318 321 324 327 328 328 328 328 328 328 329 330 330 330 330 329 327 326 324
314 313 312 311 310 309 308 308 308 308 308 307 306 305 304 304 304 304 304 304 304 304 304 303 303 303 303 303 302 302 302 302 302 302 302 302 302 302 302 302 302 302 302 302 302 302 302 302 302 302 302 302 302 302 302 302 303 303 303 304 305 306 307 309 310 312 313 315 319 323 327 328 328 328 328 328 329 330 331 330 330 330 330 329 328
314 313 312 311 311 309 308 308 308 308 307 306 304 304 304 304 304 304 304 304 304 304 304 303 303 303 303 302 302 302 302 302 302 302 302 302 302 302 302 302 302 302 302 302 302 302 302 302 302 302 302 302 302 302 302 302 302 302 302 302 303 303 303 304 306 308 310 312 313 317 321 325 327 328 328 328 329 329 330 330 330 330 331 330 330
313 313 312 312 311 310 309 308 308 307 306 305 304 303 303 304 304 304 304 304 304 304 304 303 303 303 302 302 302 302 302 302 302 302 302 302 302 302 302 302 302 302 302 302 302 302 302 302 302 302 302 302 302 302 302 302 302 302 302 302 302 302 303 303 303 304 305 307 309 312 314 317 320 324 327 328 330 330 330 329 329 329 329 329 329
313 313 312 312 311 310 309 308 308 307 306 304 303 303 303 304 304 304 304 304 304 303 303 303 303 303 303 302 302 302 302 302 303 303 303 303 303 303 303 302 302 302 302 302 302 302 302 302 302 302 302 302 302 302 302 302 301 302 302 302 302 302 302 302 303 302 303 303 305 307 309 311 313 317 319 322 326 329 330 329 329 328 328 327 326
313 312 312 311 311 310 309 308 308 307 306 304 303 303 303 304 304 303 303 304 303 303 303 303 303 303 303 303 303 303 303 303 303 304 304 304 304 303 303 303 302 302 301 301 301 301 301 301 301 301 301 301 301 301 301 301 301 301 301 302 302 302 302 302 302 302 302 302 302 303 304 306 308 310 311 313 317 321 324 324 324 324 324 324 324
313 312 312 311 311 310 309 308 308 307 306 304 304 303 303 303 303 304 303 303 304 304 303 304 304 304 304 304 304 304 304 304 304 304 304 304 304 304 303 303 302 302 301 300 300 300 300 300 300 300 300 300 300 300 300 300 300 301 301 301 301 301 301 302 302 302 302 302 302 302 302 302 303 305 306 307 309 311 313 314 315 315 316 318 319
313 313 312 312 311 310 309 308 308 307 306 305 304 304 304 304 304 304 303 304 304 303 304 304 304 304 304 304 304 304 304 304 305 305 305 305 305 305 304 303 303 302 302 301 300 300 300 299 299 300 299 299 300 300 300 300 300 300 300 300 301 301 301 301 301 301 301 301 301 301 302 301 302 302 302 303 303 304 306 307 308 309 311 313 313
313 313 312 312 311 311 309 308 308 307 307 306 305 305 304 304 304 304 304 304 304 304 304 304 304 304 304 304 304 304 304 304 305 305 305 305 305 305 304 304 304 303 303 302 301 300 300 299 299 299 299 299 299 299 299 299 300 300 300 300 300 300 300 301 301 301 301 301 301 301 301 301 301 301 301 301 301 302 302 303 303 304 306 307 309
314 313 313 313 312 311 310 309 308 308 307 307 306 305 305 305 304 304 304 304 304 304 304 304 304 304 304 304 304 305 304 304 304 304 305 304 305 305 304 305 304 304 304 304 303 301 300 300 299 299 299 299 299 299 299 299 299 299 299 299 300 300 300 300 300 300 300 300 301 301 301 301 301 301 301 301 301 301 301 302 302 302 302 303 304
314 314 314 313 313 312 311 310 309 308 308 307 307 306 305 305 305 304 304 304 304 304 304 304 304 304 304 305 305 304 304 304 304 304 304 304 304 304 304 305 305 305 305 305 304 303 302 301 300 299 299 299 299 299 299 299 299 299 299 299 299 300 299 300 300 300 300 300 300 300 300 301 301 300 300 300 300 301 301 301 301 302 302 302 302
314 314 314 313 313 312 312 311 309 308 308 308 307 307 306 305 305 304 304 304 304 304 304 304 304 304 304 304 304 304 304 304 304 304 304 304 304 304 304 304 304 304 305 304 304 304 303 302 301 300 299 299 299 299 299 299 299 299 299 299 299 299 299 299 299 300 300 300 300 300 300 300 300 300 300 300 300 300 300 301 301 301 302 302 302
314 314 313 313 313 313 312 311 310 308 307 308 307 307 306 305 305 304 304 303 303 303 304 304 304 304 304 304 304 304 303 304 304 303 304 304 304 304 304 304 304 304 304 304 304 304 303 303 302 301 300 299 299 299 299 299 299 299 299 299 299 299 299 299 299 300 300 300 300 300 300 300 300 300 300 300 300 300 300 300 300 301 301 301 302
313 313 313 313 313 313 312 312 310 308 307 307 307 307 306 305 305 304 303 303 303 303 303 304 304 304 304 304 304 303 303 303 303 303 303 303 303 303 303 303 304 303 304 304 303 303 303 303 302 301 300 299 299 298 298 298 298 298 298 298 299 299 299 299 299 299 299 300 300 300 300 300 300 300 300 300 300 300 300 300 300 301 301 301 301
313 313 313 313 313 313 312 312 311 309 308 307 307 307 306 306 305 304 303 303 303 303 303 303 304 304 304 304 303 303 303 303 303 303 303 303 303 303 303 303 303 303 303 303 303 303 303 302 301 300 299 298 298 298 297 297 298 298 298 298 298 298 298 298 299 299 299 299 299 299 300 300 300 300 300 300 300 300 300 300 300 300 301 301 301
314 313 313 313 313 313 312 312 311 309 308 307 307 307 306 306 305 304 303 303 302 303 303 303 303 303 303 303 303 303 303 303 303 303 302 302 303 303 303 303 303 303 303 303 303 303 302 302 301 299 298 298 298 297 297 297 297 297 297 297 298 298 298 298 298 298 298 298 299 299 299 299 300 300 300 300 300 300 300 300 300 300 300 301 301
314 313 313 313 313 312 312 312 311 310 309 308 307 307 306 306 305 304 303 302 302 302 302 303 303 303 303 303 303 303 303 303 303 303 302 302 302 302 302 302 302 302 302 302 302 302 302 301 300 299 298 297 297 297 297 297 297 297 297 297 297 297 297 298 298 298 298 298 298 298 299 299 299 300 300 300 300 300 300 300 300 300 300 300 300
314 313 313 313 313 312 312 312 312 311 309 308 307 306 306 306 306 305 303 302 302 302 302 302 303 303 303 303 303 303 303 303 302 302 302 302 302 302 302 302 302 302 302 302 302 302 302 301 300 299 298 298 297 297 297 297 297 297 297 297 297 297 297 297 297 297 298 298 298 298 298 298 299 299 299 299 299 300 300 300 300 299 300 300 300
313 313 313 313 312 312 312 312 311 310 309 308 307 307 306 306 306 305 304 302 301 301 302 302 302 303 303 303 303 302 302 302 302 302 302 302 302 302 302 302 302 302 302 301 302 302 301 301 300 299 298 298 297 297 297 297 297 297 296 296 297 297 297 297 297 297 297 297 297 298 298 298 298 298 299 299 299 299 299 299 299 299 299 299 299
313 314 313 313 312 312 312 312 311 310 310 309 307 306 306 306 305 304 304 303 302 301 302 302 302 302 302 303 303 302 302 302 302 302 302 302 302 302 302 301 301 301 301 301 301 301 301 300 300 299 298 297 297 296 296 296 296 296 296 296 296 296 296 296 297 297 297 297 297 298 298 298 298 298 298 298 298 298 298 298 298 299 299 299 299
314 314 313 313 312 312 312 311 311 310 309 309 308 307 306 306 305 305 304 304 302 301 301 301 302 302 302 302 302 302 302 302 302 302 302 302 302 302 301 301 301 301 300 300 300 300 300 300 299 298 297 296 296 296 296 296 296 296 296 296 296 296 296 297 297 297 297 297 298 298 298 298 298 298 298 298 298 298 298 298 298 298 298 299 299
314 313 313 313 312 312 311 311 310 310 309 309 308 307 306 305 305 304 304 304 302 301 301 301 301 301 302 302 302 302 301 301 301 301 302 302 301 301 301 301 300 300 300 300 300 300 300 300 299 298 297 296 295 296 296 296 296 296 296 296 296 296 297 297 297 297 297 298 298 298 298 298 298 298 298 298 298 298 298 298 298 298 298 299 299
313 312 313 313 312 312 311 311 310 310 309 308 308 307 306 305 305 304 304 304 302 301 301 301 301 301 301 301 301 301 301 301 301 301 301 301 301 301 301 301 300 300 300 299 300 300 299 299 298 298 297 295 295 295 295 295 296 296 296 296 296 297 297 297 297 297 298 298 298 298 298 298 298 298 298 298 298 298 298 298 298 298 298 299 299
313 313 312 312 311 311 311 310 310 309 309 308 308 307 306 305 304 304 304 303 302 302 301 300 300 301 301 301 301 301 301 301 301 301 301 301 301 301 301 300 300 300 299 299 299 299 299 298 298 298 296 295 295 294 295 295 295 296 296 296 296 296 297 297 297 297 298 298 298 298 298 297 297 297 297 297 298 298 298 298 298 298 298 298 298
313 313 312 312 311 311 310 310 310 310 309 308 307 307 306 305 304 304 303 303 302 301 301 300 300 300 300 300 300 300 300 300 300 301 301 301 300 300 300 300 300 299 299 299 299 298 298 298 297 297 296 295 294 294 295 295 296 296 297 297 297 297 297 297 297 297 298 298 298 298 298 297 296 296 295 295 296 296 296 296 296 297 297 297 297
313 312 312 311 311 311 310 310 310 309 308 307 307 306 306 305 304 303 302 302 302 301 300 300 300 300 300 300 300 300 300 300 300 300 300 300 300 300 300 300 299 299 299 299 298 298 298 298 297 296 294 293 293 294 295 295 296 297 297 297 297 297 296 296 296 297 297 297 296 297 297 297 295 294 293 293 293 294 294 294 295 295 296 296 296
313 312 311 311 310 310 309 309 309 308 308 307 306 306 305 304 303 302 301 301 301 300 300 300 299 300 299 300 299 300 300 300 300 300 300 300 300 300 300 299 299 299 299 298 298 298 298 297 297 295 294 293 293 294 295 295 296 296 297 297 297 297 296 296 296 296 296 295 295 295 296 296 294 293 292 292 292 292 293 293 293 294 294 295 295
313 312 311 310 310 310 309 309 309 308 307 306 306 305 304 303 302 301 301 301 301 300 300 300 299 299 299 299 299 299 299 299 299 300 300 300 300 299 299 299 299 299 298 298 298 297 297 297 296 295 294 293 293 294 294 295 296 296 297 297 297 296 296 295 295 295 295 294 294 295 295 294 294 293 292 292 292 292 292 293 293 293 293 294 294
312 312 311 310 310 309 309 309 309 309 308 307 307 306 305 304 303 303 303 302 301 301 300 300 299 299 299 299 299 299 299 299 299 299 299 299 299 299 299 299 299 299 298 298 298 297 297 296 295 294 294 293 293 293 294 294 295 295 297 298 297 296 296 295 294 294 293 293 293 294 294 293 294 293 293 292 292 292 292 292 293 293 293 293 293
312 312 311 310 310 309 309 309 309 309 309 308 308 307 307 306 306 306 305 304 302 302 302 301 300 299 299 299 299 299 299 299 299 299 299 299 299 299 299 299 298 298 298 298 297 297 296 295 294 294 293 293 293 292 292 293 293 293 294 296 297 297 296 294 293 294 293 293 294 294 293 293 293 293 293 293 293 293 293 292 293 293 293 293 294
312 312 311 310 309 309 309 309 309 309 309 308 308 307 307 306 306 305 305 304 303 302 302 301 300 299 298 298 298 298 299 299 299 299 299 299 299 299 298 298 298 298 298 298 297 297 296 295 294 293 292 292 292 292 291 291 291 292 292 292 294 295 295 294 294 295 294 294 295 293 294 293 293 293 293 293 293 293 293 293 293 293 293 294 294
312 311 311 310 310 309 309 309 309 309 308 308 307 307 306 305 304 304 303 302 302 301 300 299 299 298 298 298 298 298 298 298 298 298 298 298 298 298 298 298 298 298 297 297 297 296 296 294 293 292 292 292 292 292 291 290 290 290 290 290 290 290 291 292 293 296 295 295 294 294 294 293 293 293 293 293 293 293 293 293 293 293 293 294 293
312 311 311 310 310 310 309 309 309 309 308 308 307 306 305 304 303 302 301 300 299 299 299 299 298 298 297 298 298 298 298 298 298 298 298 298 298 298 298 298 298 297 297 297 297 296 296 294 293 292 292 291 291 291 291 290 290 289 289 289 288 288 288 288 289 292 294 295 295 295 294 293 293 292 292 293 293 293 293 293 293 293 293 293 293
312 312 311 310 310 310 309 309 309 309 308 307 307 306 305 304 304 303 302 300 300 299 299 300 299 299 298 298 298 297 298 297 297 298 298 298 298 298 298 297 297 297 297 297 297 296 296 294 293 292 291 291 291 291 291 290 290 289 289 288 288 287 287 286 286 288 290 292 294 295 294 293 292 291 292 292 292 292 292 292 292 292 292 292 293
313 312 311 310 310 309 309 309 309 308 308 307 307 306 305 305 304 304 303 303 302 302 301 301 300 300 299 298 298 297 297 297 297 297 297 298 298 298 297 297 297 297 297 297 297 296 296 294 293 292 292 291 290 290 290 290 290 289 289 288 288 287 286 286 285 285 286 288 290 292 292 291 291 291 291 291 291 291 290 291 291 291 292 292 292
312 311 310 310 309 309 309 308 308 308 308 307 307 306 306 305 304 303 303 303 303 303 302 301 300 300 298 298 297 297 297 297 297 297 297 297 297 297 297 297 297 297 297 297 296 296 296 295 294 292 291 291 290 290 290 289 289 289 289 288 288 288 287 286 286 285 285 286 287 289 290 289 288 289 290 290 290 290 290 290 290 291 291 291 291
312 311 311 310 309 309 309 308 308 308 307 307 307 306 306 305 304 303 303 302 302 301 300 300 300 299 298 297 297 297 297 296 297 297 297 297 297 297 297 297 297 296 296 296 296 296 296 295 293 292 291 291 290 290 289 289 289 289 289 288 288 288 287 287 287 286 286 285 286 287 288 287 287 287 289 289 289 289 289 290 290 290 291 291 290
312 311 310 310 309 309 308 308 308 308 308 307 307 307 306 306 305 304 303 302 301 300 299 299 299 299 298 297 297 296 296 296 296 297 297 297 297 297 296 297 296 296 296 296 296 296 295 294 293 292 291 290 290 289 289 289 288 288 288 288 288 287 287 287 287 287 286 285 286 286 287 287 286 286 288 289 288 288 289 289 289 290 290 290 290
311 311 310 309 309 309 309 308 308 308 307 307 307 307 307 307 306 305 304 303 301 300 299 299 298 298 298 297 297 297 296 296 296 296 296 296 296 296 296 296 296 296 296 296 296 296 295 294 293 292 291 290 289 289 289 289 288 288 287 287 287 287 287 287 287 286 286 286 285 286 287 287 287 287 287 288 288 288 288 288 289 289 289 289 289
Wind_Speed
15 15 15 13 13 12 9 8 7 7 7 6 6 5 5 5 4 4 4 4 5 5 5 4 4 4 2 3 3 2 1 2 2 2 2 1 2 2 2 3 3 4 4 4 5 5 5 5 5 5 6 6 6 7 6 6 6 7 8 8 8 8 8 8 8 8 8 8 8 8 7 6 5 5 5 5 6 8 7 6 7 7 8 8 7
16 16 16 15 15 13 11 9 7 6 6 5 5 4 3 2 2 1 1 2 3 4 5 5 5 5 5 5 5 4 4 4 4 4 3 3 4 3 3 3 3 3 3 3 4 3 3 3 3 4 4 4 5 7 6 6 6 6 6 7 8 8 8 9 9 10 10 10 9 8 8 7 5 4 4 4 6 7 8 7 6 6 7 8 8
16 17 17 16 15 14 12 9 7 6 6 5 5 5 5 3 2 2 1 1 0 0 1 2 2 2 3 4 4 3 4 3 4 4 3 4 5 5 5 5 4 4 4 4 4 3 3 3 2 2 3 4 4 6 7 7 6 6 6 7 7 8 8 9 9 9 10 10 10 10 8 7 6 5 5 4 5 6 7 7 7 7 7 7 8
16 17 16 15 14 13 12 9 7 7 7 6 5 6 5 4 3 3 2 2 2 3 3 3 3 2 2 3 3 2 3 3 4 4 5 5 6 5 5 5 5 5 5 4 4 4 4 4 3 3 3 4 5 6 7 7 7 7 8 8 7 8 8 8 9 9 9 9 9 9 9 8 7 6 6 5 5 7 8 8 8 8 8 7 8
16 16 15 13 12 11 10 8 7 8 7 6 6 5 5 4 4 4 4 4 4 5 5 5 6 6 6 5 6 6 6 7 7 7 7 7 6 5 5 5 5 5 4 4 4 4 4 4 3 3 5 6 7 7 8 8 8 9 9 9 9 9 8 9 9 9 9 9 9 8 8 8 8 8 8 6 5 7 8 8 9 8 8 8 7
16 14 13 11 10 9 8 8 8 7 6 6 5 5 5 5 5 4 4 4 4 5 5 5 6 6 6 6 7 7 8 8 8 8 7 8 8 7 7 7 7 6 5 5 6 6 5 5 6 7 8 8 9 9 9 9 9 9 9 9 9 9 8 9 8 9 9 9 9 9 9 8 8 8 7 7 7 8 9 9 8 8 8 8 8
14 13 12 11 10 9 9 8 8 7 6 6 5 5 5 5 4 4 3 3 4 4 4 4 5 5 6 6 7 7 8 8 8 8 8 8 9 9 9 9 9 9 8 8 8 8 8 9 10 10 10 10 11 11 11 10 10 9 9 10 9 9 9 9 9 8 8 9 9 9 10 9 8 8 8 8 9 9 10 10 10 10 9 9 9
13 13 12 11 10 10 9 9 8 8 7 6 7 6 6 6 5 5 4 4 4 4 4 4 4 4 5 5 6 7 7 7 7 7 7 7 8 8 8 8 9 9 10 9 10 10 10 11 12 11 10 11 11 11 12 11 11 11 10 10 10 10 10 10 10 9 9 9 9 9 10 9 8 9 9 9 10 11 10 10 11 12 11 11 11
15 14 13 12 11 11 10 9 9 9 9 8 8 7 7 6 6 5 4 4 4 4 3 3 3 3 3 4 4 5 5 5 5 5 5 5 6 6 6 6 7 8 9 9 10 10 11 12 12 12 12 12 12 13 13 13 13 13 12 11 11 11 11 10 10 10 10 10 10 10 10 9 8 8 9 9 10 12 11 11 12 13 13 12 12
16 14 13 13 12 11 11 10 10 10 9 9 8 7 6 5 5 4 3 3 2 2 2 2 2 2 2 3 3 3 4 4 4 4 4 4 4 5 5 5 5 6 6 7 8 9 10 11 12 12 13 13 14 14 15 15 15 15 15 14 14 13 13 12 12 11 11 11 11 11 10 10 9 8 8 9 9 10 12 12 13 14 14 12 12
16 15 14 14 13 12 12 11 10 10 9 8 7 6 5 4 3 2 2 1 1 1 0 1 1 1 1 1 2 2 3 3 4 4 4 4 5 5 5 5 5 6 6 6 7 7 8 9 10 10 11 12 13 14 14 15 16 16 17 16 16 16 15 15 14 13 13 12 12 11 10 10 10 9 8 8 9 10 13 13 13 13 13 12 11
17 16 16 15 14 12 11 10 10 9 8 7 6 5 5 4 3 3 2 1 1 1 1 1 1 1 1 1 1 1 1 2 2 2 2 2 3 3 3 4 4 5 5 6 6 7 7 7 8 8 9 10 11 12 13 14 14 15 15 16 16 17 17 16 16 15 14 13 12 12 11 10 10 11 10 10 10 10 12 13 12 12 12 13 12
18 17 16 14 12 10 10 10 10 9 8 7 6 6 5 5 4 4 3 2 2 2 2 2 2 2 2 2 2 2 2 2 2 2 2 2 2 2 2 2 2 3 4 4 4 5 6 6 6 7 7 8 9 10 11 12 12 13 13 14 14 15 16 16 17 16 16 15 14 13 12 12 11 11 12 11 11 11 12 13 13 13 13 13 13
18 17 15 13 11 9 9 10 10 9 9 9 8 8 7 6 5 4 4 3 3 3 3 3 3 3 3 3 3 3 3 3 3 3 3 3 3 3 3 3 3 3 3 3 4 4 5 5 6 6 6 6 7 7 8 9 9 10 11 11 12 13 13 14 15 16 16 16 15 14 13 13 13 13 12 11 11 11 12 13 14 14 13 13 13
17 16 14 12 10 9 10 10 10 10 10 10 9 9 7 7 5 5 4 3 3 3 4 4 4 4 4 4 4 4 4 4 4 4 4 3 3 3 3 3 2 2 2 3 3 4 5 5 6 7 7 7 7 7 7 8 8 8 8 8 9 10 11 11 13 14 15 16 16 16 16 16 15 14 13 12 11 12 13 14 14 14 13 12 13
17 16 15 13 11 10 11 12 12 11 11 11 10 9 8 7 6 5 4 4 4 4 4 5 5 5 4 4 4 4 4 4 4 4 4 4 3 3 3 3 3 2 2 2 3 3 4 5 6 6 7 7 7 8 8 8 8 8 8 7 7 8 8 8 9 11 12 13 14 16 17 18 17 16 15 13 11 12 14 15 16 15 14 13 13
18 17 16 14 12 12 13 13 13 12 12 11 10 9 8 6 5 4 4 4 4 4 5 5 5 5 5 5 5 5 5 5 5 5 5 4 4 4 4 4 4 4 4 3 3 3 3 3 4 4 5 6 6 7 7 8 9 9 9 9 8 8 7 7 6 6 8 10 12 14 16 17 17 18 18 16 14 13 14 16 17 17 17 17 17
19 19 17 16 15 14 15 15 14 13 12 11 10 9 8 6 5 4 3 3 4 4 4 5 5 5 5 5 5 5 5 5 5 5 5 6 6 6 6 6 6 6 6 6 6 5 5 5 4 4 4 5 5 6 6 7 8 8 9 9 9 8 8 7 7 6 5 6 8 10 13 14 15 17 18 18 18 17 18 19 20 20 21 21 21
21 20 19 18 17 16 17 17 15 14 13 12 11 9 8 6 5 3 3 3 3 3 3 3 3 3 3 4 4 4 4 4 5 5 6 7 7 8 8 9 9 10 10 10 10 9 9 8 8 7 6 6 6 6 6 6 6 7 7 8 8 8 8 7 7 6 6 5 5 7 9 11 12 14 16 17 18 19 21 22 23 23 23 23 23
22 22 22 21 19 18 18 18 17 15 14 13 12 10 9 7 6 4 3 3 2 2 2 1 1 1 1 2 3 2 3 3 4 5 6 7 8 9 10 10 11 12 12 12 11 11 11 10 10 9 9 8 7 7 6 6 6 6 6 7 7 7 7 7 7 7 6 6 5 5 6 7 8 10 12 13 14 16 18 20 22 23 24 24 24
24 24 24 23 22 20 20 19 18 17 15 14 13 12 10 9 8 6 5 4 4 3 3 2 2 1 1 0 0 1 2 3 4 6 7 8 9 9 10 11 11 12 12 12 12 12 11 11 10 10 9 9 8 8 7 7 6 6 6 6 6 6 6 6 7 7 7 6 6 6 6 6 7 7 8 9 10 11 13 15 17 20 22 23 24
25 26 26 25 24 23 22 21 20 18 17 16 15 14 12 12 10 9 8 7 6 6 5 5 5 4 3 3 3 3 2 3 4 5 6 7 7 8 9 9 10 10 11 11 11 12 12 11 11 10 10 9 9 8 8 8 7 7 6 6 6 6 6 6 6 6 7 7 7 7 7 7 7 7 8 9 9 8 8 10 12 14 17 19 21
26 25 25 25 25 25 24 23 21 20 20 18 17 16 15 14 13 12 11 9 9 8 8 7 7 6 6 6 5 5 4 3 3 4 4 5 5 6 7 7 8 8 9 9 10 11 11 11 11 11 10 10 9 9 8 8 8 7 7 7 7 7 7 7 7 7 7 7 7 8 8 8 8 9 9 10 10 10 9 8 9 10 12 14 16
24 23 24 25 26 26 26 25 23 22 22 21 20 19 18 17 15 14 13 12 11 10 9 9 8 8 7 7 6 6 5 5 4 4 4 4 5 5 6 6 7 7 8 8 9 10 11 11 11 11 11 10 10 10 9 9 8 8 8 8 8 8 8 8 7 7 7 7 8 8 8 8 9 9 10 11 11 12 12 11 10 10 10 11 13
23 24 26 27 27 27 27 26 25 25 24 24 22 21 20 19 18 16 15 14 13 13 11 11 10 9 8 8 7 7 6 6 5 5 5 5 5 6 6 7 7 7 8 9 9 10 11 11 11 11 11 11 11 10 10 9 9 9 9 9 9 9 9 9 9 9 9 8 9 9 9 9 9 9 10 10 11 12 13 14 13 13 12 11 12
26 28 28 27 27 27 28 28 27 27 27 26 24 23 22 21 20 19 17 17 16 15 14 13 12 11 10 9 9 8 8 7 6 6 6 6 6 7 7 8 8 9 9 9 10 10 11 11 11 11 11 11 11 11 11 10 10 10 10 11 11 11 11 11 11 11 11 10 10 10 10 10 10 10 10 11 11 12 12 13 14 15 14 13 13
28 28 28 28 28 29 29 29 29 28 28 28 26 25 24 23 22 20 19 18 18 17 16 14 13 13 12 11 11 10 10 9 8 8 7 7 7 8 8 8 9 10 10 10 11 11 11 11 11 11 11 11 10 10 11 11 11 11 11 11 11 11 12 12 12 12 12 12 12 12 12 12 11 11 11 11 11 12 12 13 13 14 15 16 15
28 28 29 29 29 29 30 30 30 30 30 30 29 27 26 24 24 22 21 20 19 19 17 16 15 14 13 13 12 12 11 11 10 9 9 9 8 9 9 9 10 10 10 10 11 11 11 11 11 11 10 10 9 10 10 10 11 11 11 11 11 11 12 12 12 12 13 13 13 13 13 13 13 13 12 12 12 12 12 12 13 13 14 15 16
30 30 30 30 29 30 30 31 31 31 32 31 30 29 27 26 25 24 23 22 21 20 19 18 17 16 15 14 13 13 13 12 11 11 10 10 9 9 9 10 10 11 11 11 11 11 11 11 11 11 10 10 10 9 9 10 10 11 11 11 12 12 12 12 13 13 13 13 13 12 13 13 13 13 13 13 13 13 13 13 13 13 13 13 14
32 30 31 31 30 30 31 31 31 32 33 33 32 30 29 28 27 26 24 23 22 22 21 19 18 18 17 16 15 15 14 13 12 11 11 10 10 10 10 10 11 11 12 11 11 11 11 11 11 10 11 11 10 10 10 10 10 11 11 12 12 13 13 13 14 14 14 14 13 13 13 13 13 13 13 13 13 13 13 13 13 13 12 13 13
33 33 32 32 31 31 31 30 31 33 34 34 33 32 31 29 28 27 26 25 24 23 23 21 20 19 18 18 17 16 15 14 13 12 11 11 10 10 10 11 11 12 11 11 11 11 11 11 11 11 11 11 11 11 11 11 11 12 12 13 14 14 14 14 14 15 14 14 14 14 13 13 13 13 13 13 13 12 12 12 12 12 12 12 12
36 35 33 33 33 33 32 31 31 33 35 35 34 34 32 30 29 28 27 26 25 25 24 23 22 21 20 19 18 17 16 15 14 13 12 11 11 11 11 11 11 12 11 11 10 10 11 11 12 12 12 12 12 12 12 12 12 13 13 14 15 15 16 16 16 16 15 15 14 14 13 12 12 12 12 11 11 11 11 12 11 11 12 12 12
37 35 35 35 34 34 33 32 31 33 35 36 35 35 33 32 31 30 28 28 27 27 26 24 24 23 22 21 20 19 17 16 15 14 14 12 12 11 11 11 11 11 11 10 10 10 11 11 12 12 12 12 12 13 13 13 14 14 15 15 16 17 17 17 18 18 17 16 15 15 14 12 10 9 8 8 9 10 11 12 12 12 11 11 12
38 37 37 36 35 35 34 33 32 33 34 36 36 36 35 34 33 31 30 29 28 28 27 26 25 25 23 22 21 20 18 18 16 15 15 13 12 12 11 11 11 11 11 11 10 10 10 11 11 12 12 13 14 14 14 15 15 16 17 17 18 18 19 19 19 19 19 18 17 16 13 11 9 8 7 8 9 11 11 12 12 12 12 13 13
39 39 38 36 36 36 35 34 33 33 34 35 37 37 36 35 34 33 31 30 30 29 28 27 27 26 25 24 22 21 20 19 17 16 16 14 13 12 12 12 12 12 12 11 11 10 10 11 12 12 13 13 14 16 17 17 17 18 19 19 19 19 19 19 20 20 19 19 17 14 11 10 10 10 10 11 12 12 12 12 13 13 13 14 14
39 39 38 38 38 38 36 35 34 33 33 34 37 37 37 37 35 34 32 31 31 30 30 29 28 27 26 25 24 22 21 20 19 18 17 16 14 13 12 12 12 12 12 12 11 11 11 11 12 13 13 14 16 17 18 19 20 20 20 21 21 22 21 21 21 20 19 18 16 13 12 14 15 15 14 14 14 14 15 15 16 16 16 16 16
39 39 40 39 39 39 37 36 35 33 33 33 36 37 38 38 36 35 34 33 32 32 31 30 30 29 28 26 25 23 22 21 20 19 18 17 15 14 13 12 13 13 13 13 12 11 11 11 13 14 15 17 18 19 20 20 21 21 21 22 22 23 22 22 21 20 18 15 13 14 17 21 21 19 19 19 20 20 19 19 19 19 19 19 19
39 40 40 40 39 39 38 37 35 34 33 33 35 37 38 38 37 36 35 34 34 33 32 32 31 30 29 28 26 25 24 23 21 20 19 18 16 14 13 13 13 13 13 13 13 12 12 12 13 14 16 18 20 21 22 22 22 22 22 21 22 23 23 23 23 21 16 13 15 19 23 24 22 21 22 23 23 23 21 21 21 21 21 22 22
40 40 40 40 40 40 39 37 36 35 34 33 34 36 38 39 39 38 37 36 36 35 34 34 33 32 31 29 28 26 25 24 23 22 20 19 17 15 15 14 14 14 14 14 13 13 13 12 13 14 16 18 20 22 23 24 24 23 23 22 22 23 23 24 24 20 14 14 20 26 25 21 21 24 25 24 23 23 22 23 23 24 24 24 24
39 40 41 41 42 41 41 39 37 36 35 35 36 38 40 41 41 41 40 39 38 37 36 35 34 33 32 31 29 28 27 26 24 23 22 20 19 17 15 15 14 14 14 14 14 13 13 12 13 14 15 16 19 21 23 25 25 25 24 23 23 23 23 25 22 16 14 20 29 29 22 19 23 25 24 22 23 24 24 25 26 27 27 27 28
40 41 42 42 43 43 42 39 37 37 38 38 38 39 41 42 43 43 43 42 40 39 38 37 36 35 34 33 31 30 28 27 26 24 23 22 20 18 17 16 15 14 14 15 14 14 13 13 13 14 15 17 18 20 22 24 26 28 28 26 25 24 24 24 18 15 22 31 32 24 18 22 26 24 23 24 25 26 27 28 28 29 29 30 30
40 41 43 43 43 42 41 39 38 39 39 39 39 39 40 41 41 42 42 42 41 41 39 38 37 36 36 34 33 31 29 28 27 26 25 23 21 19 17 16 15 14 14 15 15 14 14 13 14 14 16 17 18 20 22 24 26 29 31 31 30 28 25 22 18 20 30 32 24 19 23 28 27 24 26 27 28 29 30 30 31 31 31 31 32
39 40 42 42 43 42 41 40 39 40 40 40 39 39 39 40 40 40 40 40 41 41 39 38 37 38 37 36 34 32 31 30 29 28 26 24 22 20 18 17 16 15 15 15 15 15 15 14 15 16 17 18 18 19 21 22 25 27 28 29 31 31 29 26 26 29 30 25 20 24 29 29 27 28 29 29 30 31 32 32 32 32 33 33 33
39 41 43 43 43 42 41 41 40 40 40 40 39 39 39 39 40 40 40 39 39 39 39 39 39 39 38 38 36 34 33 32 31 29 27 25 23 21 19 18 16 15 15 15 16 15 15 15 16 17 18 18 19 19 19 20 23 25 25 25 24 23 24 30 38 35 26 23 27 30 31 29 30 32 32 32 33 33 33 33 34 34 35 35 35
40 41 43 43 42 41 40 40 40 40 39 39 40 40 40 41 41 42 41 41 40 40 41 42 42 42 41 39 38 36 34 33 32 30 28 26 24 22 20 19 17 16 16 16 16 16 16 15 16 18 19 19 20 20 20 20 21 22 23 21 17 14 19 31 38 34 29 29 32 31 30 33 35 35 35 35 35 36 36 35 36 36 35 36 36
39 40 41 40 39 39 39 39 40 39 39 39 40 40 41 42 43 44 45 45 45 46 46 46 45 43 42 41 39 37 36 35 33 31 29 27 25 23 21 20 18 17 16 16 16 17 16 16 17 18 19 20 20 20 20 20 20 20 21 20 17 16 23 29 28 31 38 38 35 33 34 36 38 38 38 39 40 39 39 39 38 37 37 38 39
38 38 38 38 38 38 38 39 39 39 39 39 39 40 41 42 44 45 45 46 47 48 47 46 44 42 41 40 39 38 37 36 34 32 30 28 26 24 22 21 19 18 17 16 17 17 17 17 17 18 20 21 21 21 21 20 19 20 20 21 20 20 22 23 24 30 38 41 42 41 40 40 40 41 41 41 43 43 42 42 40 40 40 39 40
35 37 37 37 38 37 37 38 39 39 38 38 38 38 39 40 42 44 45 46 47 46 45 44 42 42 41 41 40 39 38 37 35 33 31 30 28 26 24 22 20 19 17 17 17 18 17 17 17 18 20 21 22 22 21 21 20 20 21 21 21 21 20 21 23 26 30 40 48 46 42 44 43 42 43 44 44 44 44 44 43 42 41 40 41
34 35 35 36 37 37 37 38 39 39 38 37 37 36 36 38 40 42 44 45 46 45 45 43 42 42 42 41 41 40 39 38 36 35 33 31 29 27 25 23 21 19 18 18 18 18 18 18 18 19 20 21 22 22 22 22 21 20 21 21 22 22 21 21 22 24 26 35 46 46 45 47 47 45 45 45 45 44 45 46 45 43 41 41 41
32 33 34 35 36 37 38 38 38 38 37 36 35 34 34 36 38 41 42 43 45 45 45 44 43 42 42 42 42 41 40 39 38 36 34 33 30 28 26 24 22 20 19 19 19 19 18 18 18 19 21 21 22 22 22 22 21 20 20 21 21 21 22 23 23 25 26 29 39 47 47 48 51 51 47 46 46 47 48 47 46 44 42 41 41
31 33 35 36 37 37 38 38 38 37 36 36 34 33 33 34 35 38 41 42 44 45 45 45 45 44 44 43 43 42 41 39 38 37 35 34 32 30 27 25 23 21 20 19 19 20 19 19 19 20 21 22 22 22 23 23 21 21 20 20 20 20 21 24 24 24 26 28 35 46 48 48 52 54 50 49 50 49 49 49 48 46 42 41 42
Wind_Direction
190 191 195 193 196 199 196 188 181 178 165 153 140 140 134 122 106 88 99 92 79 77 75 82 77 64 82 111 90 73 105 113 93 81 59 36 28 8 358 353 357 5 4 2 358 359 358 0 1 0 1 356 348 345 354 5 6 7 8 7 9 11 9 7 5 5 4 4 4 1 357 350 337 324 319 330 341 341 343 346 345 344 346 353 359
189 193 196 195 198 196 190 185 189 193 184 177 171 177 183 177 148 102 109 87 73 72 75 77 76 72 77 85 78 76 84 89 84 73 67 64 53 35 28 15 5 13 9 353 344 348 349 352 353 344 340 342 342 341 350 356 355 357 0 359 358 2 5 7 8 10 8 6 7 4 1 355 348 329 310 331 353 344 338 341 346 340 337 340 348
187 194 196 198 202 202 199 196 199 204 203 199 200 210 217 220 221 239 239 251 273 43 103 69 59 73 67 61 53 65 65 53 53 46 40 36 31 20 18 14 15 26 17 356 352 359 10 5 354 351 328 325 337 342 350 352 349 350 356 355 354 358 0 5 8 11 10 8 9 8 4 353 347 327 310 335 355 337 328 337 350 349 338 331 335
186 191 192 200 204 208 211 212 214 210 207 206 208 213 213 212 221 234 228 228 237 241 237 253 274 277 290 305 315 316 322 326 332 334 331 340 349 350 354 357 1 10 7 8 19 8 8 21 22 25 1 349 350 345 352 353 347 346 354 357 359 360 0 5 6 8 9 8 7 8 5 352 343 335 335 358 352 328 327 341 352 351 341 330 328
187 188 189 193 198 204 208 209 211 207 199 194 198 208 210 210 213 217 217 218 223 231 235 242 252 259 264 268 273 274 281 284 289 294 297 305 308 310 316 320 325 335 338 339 352 344 346 9 9 2 357 353 349 345 351 351 345 347 353 355 355 353 355 0 2 3 3 3 1 1 357 345 343 345 353 359 341 325 331 345 348 348 342 331 323
184 179 184 185 191 196 196 196 197 197 187 179 184 197 203 203 208 205 200 198 203 218 228 230 236 243 245 247 253 259 264 267 271 272 273 274 276 278 282 288 291 289 288 288 297 301 299 307 306 314 322 322 322 324 329 331 330 336 341 342 343 341 341 345 350 354 354 354 350 350 346 344 347 348 358 345 328 327 331 336 332 330 331 326 321
180 169 179 182 188 193 195 193 193 196 187 184 190 202 210 210 215 215 209 199 201 214 220 218 222 229 235 239 244 250 253 260 266 267 267 266 266 268 271 274 276 276 275 273 275 278 279 284 289 300 307 308 310 311 312 314 314 317 320 322 325 325 326 329 333 339 343 344 341 342 339 343 347 340 348 341 325 330 339 339 331 324 318 314 314
178 170 182 184 191 197 201 202 204 206 200 199 202 209 215 217 218 219 220 214 215 221 221 211 213 222 229 237 240 247 252 258 264 266 268 267 268 267 267 266 268 270 271 271 270 272 275 277 281 287 292 295 298 299 301 303 305 307 308 311 312 313 316 319 322 324 328 332 332 332 329 335 338 329 335 335 324 327 342 347 342 336 328 319 313
181 180 184 187 196 202 204 207 207 204 201 197 197 199 199 201 202 202 204 204 208 216 222 218 215 224 232 240 246 252 258 263 266 267 270 270 270 268 267 262 260 261 263 265 266 267 270 274 277 279 280 281 283 286 289 292 294 297 298 300 301 303 304 307 311 312 315 319 321 321 322 327 326 323 328 334 330 325 333 342 340 336 332 329 323
184 183 186 192 197 202 204 204 203 197 191 186 185 185 184 183 181 184 189 192 197 207 220 230 224 232 244 253 260 264 266 269 271 269 270 269 268 266 265 264 260 258 257 259 260 262 265 269 274 277 279 280 281 283 284 286 287 289 290 291 292 293 294 296 297 299 303 307 310 312 315 318 317 317 323 330 330 322 322 332 333 330 327 328 329
182 188 191 196 197 199 202 199 195 188 180 176 174 172 171 167 166 167 169 175 180 207 242 272 271 266 261 266 270 270 274 272 275 275 273 270 269 269 269 272 272 271 271 271 271 271 271 271 275 278 281 283 284 284 285 285 286 286 286 287 286 286 287 288 289 289 291 293 298 301 304 307 308 308 310 315 318 315 315 320 325 326 325 325 327
184 194 196 199 199 199 198 193 186 180 175 170 168 165 161 156 152 145 137 121 113 78 41 14 8 8 0 347 322 306 302 296 295 292 290 288 285 289 289 291 291 293 294 294 293 290 290 287 285 285 284 284 284 285 285 284 284 284 282 282 281 281 281 281 282 282 282 282 284 288 292 295 296 297 297 302 305 307 311 315 318 320 322 322 322
192 199 201 202 199 198 194 189 183 178 175 170 168 163 155 149 143 135 127 112 103 86 79 60 53 50 47 52 50 54 51 54 53 53 50 45 42 26 21 4 348 338 333 331 327 323 320 315 312 308 302 298 293 291 288 287 285 284 282 280 278 276 275 275 275 274 274 273 274 277 282 285 284 283 285 291 297 301 305 310 316 320 321 319 317
202 205 203 204 200 200 197 193 188 182 176 171 166 159 152 147 140 132 123 112 107 96 97 87 85 80 77 79 76 79 75 77 76 76 75 70 70 63 62 51 41 24 10 3 356 353 349 346 343 339 336 331 323 316 309 305 300 296 293 289 284 279 275 272 270 269 268 267 267 268 270 273 273 273 274 278 286 293 300 303 309 316 321 321 319
208 210 208 210 206 206 204 199 192 184 177 169 161 155 151 146 140 131 121 111 111 106 105 100 100 97 96 97 94 96 88 88 83 79 77 71 72 66 65 57 51 37 20 8 357 355 351 351 351 349 350 349 346 342 338 333 328 324 317 311 302 293 287 280 273 270 266 265 263 262 260 261 264 269 273 272 274 280 288 293 297 302 308 314 315
208 213 215 214 214 213 209 202 193 186 176 166 160 156 153 150 145 134 124 117 116 112 112 109 108 107 108 108 107 104 99 98 91 86 81 73 68 58 56 50 44 36 25 11 357 350 345 345 345 345 347 347 348 347 347 345 343 343 340 337 328 318 312 300 287 278 270 265 262 261 259 259 260 263 266 269 272 273 277 280 283 287 290 295 300
210 215 218 217 218 217 212 205 195 187 177 167 162 160 159 155 148 137 126 122 120 119 118 116 116 116 117 116 112 109 105 101 94 89 81 73 67 57 50 43 39 35 29 23 14 4 353 347 344 341 342 341 342 345 345 345 345 345 345 345 345 340 336 329 317 298 281 269 261 259 260 260 260 260 260 261 263 265 267 270 273 276 279 283 285
215 218 218 219 218 216 214 206 197 190 181 172 167 166 165 161 153 142 132 127 125 123 121 121 122 121 122 118 110 106 101 94 85 77 70 62 55 49 43 37 32 28 23 21 18 14 10 3 1 355 350 345 342 344 343 343 342 341 342 344 346 345 343 342 337 327 307 286 271 264 263 262 261 261 261 259 258 258 261 264 267 270 273 275 277
221 222 221 221 219 218 215 208 201 194 186 178 175 174 173 172 165 161 152 148 144 138 135 130 127 124 120 110 102 96 86 76 69 59 51 44 39 35 31 28 24 21 18 14 12 9 7 3 2 0 358 358 352 352 348 344 342 340 340 340 342 343 343 342 339 337 331 320 302 285 276 270 265 264 264 263 260 259 260 263 266 269 271 272 273
225 225 224 225 221 220 218 212 205 197 193 186 183 183 182 185 184 188 188 188 190 180 177 161 154 142 113 93 91 81 66 54 45 37 31 28 25 24 22 20 18 15 12 8 5 0 358 355 353 352 351 351 349 347 345 344 343 341 339 337 337 338 337 335 337 338 335 334 327 314 301 289 280 274 271 270 268 265 264 263 264 266 267 269 271
227 228 228 227 224 222 221 218 210 202 199 193 192 192 191 195 196 202 205 212 221 229 244 249 263 278 324 73 80 23 24 16 17 17 17 18 16 18 17 15 13 9 6 1 357 352 349 346 342 340 339 338 338 337 337 337 337 337 335 334 332 330 331 332 333 333 331 331 328 325 319 313 306 299 293 288 283 278 275 272 270 268 267 267 268
229 230 231 230 227 225 224 222 216 208 205 201 199 198 198 202 203 207 211 216 223 233 247 254 265 270 270 270 281 298 323 346 1 7 9 13 12 14 13 10 8 3 359 354 351 347 341 338 334 331 329 328 327 326 327 329 331 331 331 330 327 327 328 329 329 327 325 323 323 321 319 319 316 313 311 308 306 300 292 287 283 280 277 274 271
231 233 235 235 231 227 227 226 220 213 211 208 205 203 203 206 207 210 212 217 222 231 241 247 253 256 262 269 277 285 294 311 327 340 348 354 357 359 360 358 356 353 350 348 345 342 339 334 329 326 323 321 319 317 318 320 323 325 326 325 323 325 326 326 325 322 320 319 318 317 317 317 317 317 316 316 316 315 312 304 299 295 291 287 283
238 240 238 237 235 230 229 228 223 216 214 212 209 207 206 207 209 211 214 217 222 229 236 242 245 249 255 259 262 266 273 283 295 307 316 324 329 331 334 335 335 336 336 337 338 338 338 334 329 324 320 318 316 315 316 317 321 323 323 323 323 323 322 321 319 317 315 313 312 311 312 312 312 313 314 316 317 318 318 316 313 308 303 300 296
242 240 238 237 236 234 231 230 225 219 217 216 213 211 209 209 210 211 214 217 221 226 231 237 240 244 246 249 252 254 260 267 274 284 293 300 305 309 312 314 317 321 324 327 332 335 336 334 330 324 319 317 317 318 318 321 323 326 325 326 326 325 323 321 317 314 311 309 307 305 304 302 301 301 303 306 308 312 314 315 315 313 311 307 304
238 237 238 238 238 236 233 230 227 222 220 219 216 214 213 212 212 213 215 217 221 225 228 232 235 239 241 244 248 252 258 260 262 265 271 280 285 291 295 300 303 308 315 320 327 332 334 333 330 326 324 323 323 325 326 327 328 329 328 328 328 326 325 323 321 319 314 311 308 307 304 300 297 295 295 295 297 300 302 306 309 311 311 309 307
240 240 239 238 237 235 234 231 228 225 223 221 218 216 215 214 214 215 217 219 221 224 227 229 232 234 237 240 244 250 256 258 259 260 264 268 272 277 282 288 294 301 308 316 324 331 335 334 332 330 329 328 327 329 330 330 331 331 330 330 329 327 326 325 323 321 319 317 315 312 309 305 302 298 297 295 294 295 295 297 299 302 304 305 305
244 242 240 238 237 236 234 233 229 227 225 223 221 219 217 216 216 216 217 219 221 224 226 228 230 231 234 237 241 247 252 256 258 260 264 267 271 275 279 285 291 298 304 313 323 331 336 335 334 333 330 328 326 328 328 328 329 329 329 329 329 328 327 326 324 322 319 317 316 314 311 308 306 303 301 299 297 297 296 295 294 293 293 294 296
243 242 241 240 238 237 235 234 230 228 227 226 224 222 220 218 218 219 219 220 221 223 225 227 229 230 234 237 240 245 248 253 256 260 263 267 273 277 281 285 290 298 305 313 323 331 335 335 335 332 327 326 326 327 327 327 327 326 327 327 327 326 325 325 323 322 320 318 317 314 311 309 307 305 303 301 301 300 300 299 298 297 294 293 293
243 242 242 242 240 238 236 235 232 229 228 227 226 224 222 221 221 221 220 221 222 223 225 226 228 230 234 237 240 243 246 250 254 259 263 267 272 276 281 284 289 297 304 311 321 328 333 335 332 328 325 325 325 326 327 328 328 327 329 328 327 326 324 325 323 322 322 320 319 317 315 313 310 308 307 306 305 303 302 301 301 301 301 299 298
243 241 242 242 241 239 237 235 231 229 228 228 227 226 225 224 223 222 222 222 222 223 225 226 228 230 233 236 239 241 245 248 253 258 262 266 270 274 279 283 288 295 301 307 317 326 332 334 332 330 327 326 327 328 329 328 330 332 332 331 330 328 327 326 325 325 323 321 319 317 316 315 314 313 313 313 312 310 307 304 302 301 302 302 303
243 242 242 241 241 240 238 236 232 228 228 228 227 227 227 225 224 224 224 224 224 225 226 227 229 230 233 236 238 240 243 247 251 256 260 264 268 273 278 282 288 293 299 305 316 328 335 336 335 333 329 329 330 329 329 329 332 333 332 332 331 330 329 330 329 328 325 322 319 317 315 313 313 312 311 311 311 312 312 312 311 308 304 303 303
246 245 242 242 242 242 240 237 233 229 229 228 228 228 228 227 226 226 226 226 225 227 228 227 230 231 233 235 236 239 241 245 249 253 258 262 266 270 276 280 287 294 300 307 318 329 333 335 334 332 330 330 328 325 327 330 332 332 332 332 332 332 333 333 333 330 327 325 324 322 320 319 318 313 308 307 308 311 313 313 314 312 310 305 302
247 244 242 243 242 242 241 239 235 231 229 228 227 228 229 228 227 227 227 228 227 228 229 228 230 232 233 234 236 238 240 243 246 250 255 259 263 268 274 281 290 297 302 306 314 323 328 331 331 332 332 330 328 327 329 330 331 332 333 333 333 334 334 334 333 330 329 329 328 327 327 328 328 325 318 316 315 315 313 311 308 307 306 306 305
245 243 243 244 242 241 240 240 238 234 230 228 228 228 229 229 229 228 227 228 228 229 230 229 230 231 232 234 235 237 238 241 244 248 253 256 261 267 275 283 291 297 299 301 307 317 325 328 331 334 334 331 331 332 332 332 332 332 332 332 332 334 335 335 333 331 331 331 329 327 329 332 331 326 320 318 318 317 317 315 311 308 307 306 305
245 244 243 242 240 241 240 240 239 236 233 229 228 229 229 229 229 230 229 229 230 230 230 230 231 232 232 234 235 236 237 239 242 247 251 255 260 266 274 282 289 294 296 297 303 312 321 326 331 335 335 334 335 334 333 332 332 332 332 333 334 336 337 335 332 332 333 331 328 326 329 331 330 329 327 327 326 325 325 323 321 319 316 315 313
248 245 242 240 240 240 239 240 240 239 236 231 229 229 229 230 230 230 229 230 231 231 231 230 231 231 232 233 234 235 236 239 241 246 250 253 258 263 271 279 285 290 292 294 300 307 315 324 330 336 338 338 336 333 332 331 331 331 332 334 334 335 335 334 333 333 334 332 327 326 329 331 333 336 336 334 332 332 331 329 327 327 325 323 322
247 244 242 241 240 241 240 240 240 240 237 233 231 229 229 230 230 230 229 230 231 231 232 231 231 231 233 234 234 234 236 238 241 244 248 250 253 259 266 273 279 286 289 291 295 301 310 322 332 338 339 338 334 330 330 330 330 329 329 331 331 333 335 335 335 336 336 333 330 331 331 332 336 338 335 332 332 333 332 331 330 329 328 327 325
246 243 241 239 239 239 238 239 239 239 237 234 232 230 229 229 229 229 227 228 229 230 231 231 231 231 232 233 233 234 235 237 240 242 245 247 250 254 260 268 275 281 286 288 291 297 307 320 332 338 336 334 330 328 328 329 330 328 327 328 330 334 336 336 338 340 339 334 332 331 331 333 337 334 330 329 330 331 330 331 331 330 329 327 325
246 242 239 237 236 236 235 236 237 238 236 233 230 228 228 227 227 227 227 227 228 230 231 231 232 231 232 232 232 233 234 236 238 239 242 244 246 250 256 264 271 277 283 286 290 295 304 316 327 332 332 330 327 326 327 329 330 327 325 328 333 335 336 338 342 344 339 332 329 328 331 333 331 329 328 327 328 328 330 330 330 329 328 327 325
241 240 237 235 235 233 233 234 235 236 236 233 231 229 228 227 227 228 229 229 229 231 231 232 232 232 232 232 232 232 233 236 237 238 240 242 243 247 253 260 267 275 281 285 290 294 302 312 321 325 327 327 326 326 329 332 333 331 328 328 331 335 338 341 344 343 334 327 324 325 329 327 325 326 326 326 327 328 328 328 327 327 326 325 325
238 237 237 235 234 233 234 235 235 235 236 236 235 234 233 233 233 234 234 233 233 234 235 235 234 233 233 233 232 232 233 235 236 237 239 240 242 245 251 259 266 274 280 285 289 294 300 308 314 317 321 324 327 329 332 337 339 340 337 332 332 332 336 340 334 329 328 323 321 324 324 323 323 325 325 324 326 326 325 325 324 324 323 323 322
238 238 237 234 233 233 234 234 235 236 237 237 237 237 237 237 238 239 238 236 236 236 237 237 236 234 234 233 233 232 234 235 235 236 238 239 241 244 250 257 264 272 279 285 289 294 299 304 309 312 316 320 325 329 334 339 342 344 343 340 337 333 332 332 323 322 326 323 321 322 320 322 324 323 322 323 324 323 322 322 322 322 322 322 322
235 236 235 233 233 233 233 233 234 236 236 237 237 238 237 237 238 238 238 238 237 237 236 235 235 234 233 232 232 233 233 235 235 236 237 237 239 242 248 254 261 269 276 282 287 292 297 301 305 308 312 316 321 327 332 339 342 343 345 345 343 337 331 328 323 321 324 321 319 320 319 320 322 321 321 322 321 320 320 320 321 322 322 322 321
234 235 234 233 234 234 234 234 234 235 236 237 236 235 235 234 234 233 232 232 232 232 232 231 230 231 232 232 233 233 233 233 234 234 235 236 239 242 247 252 258 265 272 278 284 288 293 297 302 305 309 313 318 324 329 336 341 342 344 344 341 331 320 325 326 320 316 315 314 317 318 319 321 320 320 320 320 319 318 319 321 321 321 321 320
235 236 236 235 235 235 234 233 233 234 235 235 235 235 235 234 233 231 229 228 228 229 230 232 231 232 233 233 232 233 233 233 233 234 234 235 238 241 245 250 255 261 267 274 280 284 290 294 299 303 306 310 314 320 325 331 337 338 339 339 334 323 317 324 325 316 317 319 315 316 318 319 319 319 319 321 320 319 319 320 321 321 321 320 319
236 235 235 235 234 233 233 232 232 233 233 234 234 234 235 235 235 235 235 234 233 234 235 235 236 237 237 235 234 233 233 233 233 233 234 235 237 240 243 247 252 258 264 271 277 282 287 291 297 301 304 307 310 315 321 325 331 333 332 332 330 326 322 322 318 314 318 319 316 318 319 318 318 318 319 320 319 319 319 320 320 320 320 319 319
235 233 232 231 231 231 231 231 231 233 233 233 234 235 236 236 237 237 237 238 239 241 240 239 239 239 238 237 236 235 233 232 233 233 234 235 236 239 241 245 250 255 261 267 274 280 285 289 294 298 300 304 307 311 317 320 324 328 328 327 326 326 323 319 317 317 316 312 312 317 319 317 316 316 318 318 317 318 318 318 318 318 319 318 317
233 232 231 229 229 228 229 229 230 232 232 233 234 235 237 238 239 239 239 240 240 241 241 240 240 239 238 237 235 235 234 232 233 233 233 234 236 238 240 244 248 253 259 266 272 278 282 287 291 295 297 300 304 308 312 315 318 323 325 324 324 324 321 319 320 320 316 310 309 312 316 315 313 314 316 316 316 316 316 316 316 317 317 317 316
233 232 230 229 228 227 227 228 228 230 230 231 232 233 236 238 241 241 241 240 239 238 238 238 238 238 237 237 235 234 233 232 232 233 232 234 235 237 239 243 247 251 258 264 270 275 279 284 288 291 295 297 300 304 307 310 314 319 321 321 321 321 319 320 323 321 317 310 306 308 313 314 312 312 315 316 315 315 315 314 314 316 317 317 317
231 229 228 226 226 225 225 227 227 228 228 229 230 231 234 238 243 244 243 242 240 238 238 237 237 237 236 236 235 234 233 232 233 233 232 233 234 236 239 242 246 251 257 262 267 273 278 282 286 289 292 294 297 301 304 308 311 314 316 316 317 317 317 320 322 319 314 310 307 307 311 315 312 311 314 316 315 314 315 314 314 315 316 317 318